Retour au catalogue

STARLINK-32596

ActifCommunicationsVLEO
NORAD 62316·PAYLOAD·🇺🇸 United States

Lancé Dec 13, 2024 depuis Vandenberg Space Force Base

Loading…

Prochains Passages (prochaines 24 heures)

TLE

FraisSource: CelesTrak SupGP

Époque: Sep 14, 2026, 22:31 UTC

1 62316C 24239R   26257.93868056  .00013649  00000+0  40333-3 0  2570
2 62316  53.1599  31.4063 0001100  73.0647  75.5135 15.34377897    19

Suivez STARLINK-32596 en temps réel avec AllMySat

Download on the App Store